User: anonymous   Login
Location: Valley View Observatory
(41.0081°N, 76.5874°W)
Time: 18:28:46
(UTC-04:00)
Language:

Cosmos 2237 Rocket - Orbit

View from above orbital plane
View from above orbital plane
View from above satellite
View from above satellite

Ground track
Ground track

The orbit data is extracted from the following two-line orbital elements,

1 22566U 93016B   18113.48638071 -.00000451  00000-0 -20841-3 0  9991
2 22566  71.0045 135.5810 0009725   7.8576 352.2697 14.14955967295167
Epoch (UTC): 23 April 2018 11:40:23
Eccentricity: 0.0009725
inclination: 71.0045°
perigee height: 835 km
apogee height: 849 km
right ascension of ascending node: 135.5810°
argument of perigee: 7.8576°
revolutions per day: 14.14955967
mean anomaly at epoch: 352.2697°
orbit number at epoch: 29516

The dashed part of the orbit path shows where the satellite is in the earth's shadow,  

DLR